Temp
-7 -7 -9 -10 -10 -10 -9 -9 -8 -8 -8 -8 -8 -8 -8 -8 -8 -7 -6 -5 -6 -8 -8 -7 -7 -7 -7 -8 -7 -7 -7 -7 -8 -8 -8 -8 -8 -8 -8 -7 -7 -7 -7
-8 -8 -8 -8 -9 -9 -8 -9 -8 -8 -8 -8 -8 -8 -8 -8 -8 -7 -7 -7 -6 -8 -8 -8 -8 -7 -7 -7 -8 -8 -8 -8 -8 -8 -8 -8 -8 -8 -8 -8 -8 -8 -7
-8 -9 -9 -9 -9 -9 -9 -9 -8 -8 -8 -8 -8 -8 -8 -8 -8 -8 -7 -7 -8 -8 -8 -8 -9 -8 -7 -7 -8 -8 -8 -8 -8 -8 -8 -8 -8 -8 -8 -8 -8 -8 -8
-8 -9 -9 -9 -9 -9 -9 -8 -8 -8 -9 -9 -9 -9 -8 -8 -8 -8 -8 -8 -7 -9 -9 -9 -9 -8 -8 -8 -8 -8 -8 -8 -8 -8 -7 -8 -8 -8 -8 -8 -8 -8 -8
-7 -8 -8 -9 -9 -8 -9 -9 -9 -9 -9 -9 -9 -10 -10 -9 -8 -8 -8 -9 -9 -9 -9 -9 -9 -9 -8 -7 -8 -8 -8 -8 -8 -8 -7 -8 -8 -8 -8 -9 -8 -8 -8
-7 -7 -8 -8 -8 -9 -9 -10 -10 -9 -9 -9 -10 -10 -10 -9 -9 -9 -9 -9 -9 -9 -9 -9 -9 -9 -8 -8 -7 -8 -7 -8 -8 -8 -8 -8 -8 -8 -8 -9 -9 -8 -7
-7 -8 -8 -8 -8 -8 -8 -9 -9 -9 -10 -10 -10 -10 -9 -9 -9 -9 -9 -9 -9 -8 -8 -8 -8 -8 -8 -8 -8 -7 -7 -8 -8 -8 -7 -7 -7 -8 -8 -9 -9 -8 -7
-7 -7 -7 -7 -8 -8 -8 -8 -9 -9 -9 -10 -10 -10 -10 -10 -9 -9 -9 -8 -8 -8 -8 -8 -8 -7 -7 -8 -8 -8 -8 -7 -7 -7 -7 -7 -7 -8 -9 -9 -9 -9 -8
-7 -7 -7 -7 -7 -8 -8 -8 -8 -9 -9 -9 -9 -9 -10 -10 -10 -9 -9 -9 -9 -8 -8 -8 -8 -7 -7 -8 -8 -8 -8 -8 -8 -7 -7 -7 -7 -8 -8 -8 -8 -9 -8
-7 -7 -7 -7 -7 -7 -8 -8 -8 -9 -9 -9 -9 -9 -9 -9 -9 -9 -9 -9 -9 -8 -8 -8 -8 -8 -7 -7 -8 -8 -8 -8 -8 -8 -7 -7 -7 -8 -8 -8 -9 -9 -8
-7 -7 -7 -7 -7 -8 -8 -8 -9 -9 -9 -9 -9 -9 -9 -9 -9 -9 -8 -8 -9 -8 -8 -9 -8 -8 -8 -8 -8 -8 -8 -8 -8 -8 -8 -7 -8 -8 -8 -8 -8 -8 -8
-8 -8 -7 -7 -8 -7 -7 -8 -8 -8 -9 -9 -9 -9 -9 -9 -9 -9 -9 -9 -8 -8 -9 -9 -9 -9 -8 -8 -8 -8 -8 -8 -8 -8 -8 -8 -8 -8 -8 -9 -8 -8 -8
-8 -8 -8 -8 -8 -8 -7 -7 -8 -8 -8 -9 -9 -9 -9 -9 -9 -9 -9 -9 -9 -8 -9 -9 -9 -9 -9 -9 -8 -8 -8 -8 -7 -9 -9 -9 -9 -9 -9 -9 -9 -8 -8
-8 -8 -8 -8 -8 -8 -8 -8 -8 -8 -8 -8 -9 -9 -9 -9 -9 -9 -9 -9 -9 -9 -9 -8 -8 -8 -8 -8 -9 -8 -8 -8 -8 -7 -8 -8 -9 -9 -9 -9 -9 -8 -8
-8 -8 -8 -8 -8 -8 -9 -9 -9 -9 -9 -9 -9 -9 -9 -9 -9 -9 -9 -9 -9 -9 -8 -8 -8 -8 -8 -8 -8 -9 -9 -8 -8 -8 -8 -8 -9 -9 -9 -9 -9 -9 -9
-8 -8 -8 -8 -8 -8 -8 -9 -9 -9 -9 -9 -9 -9 -9 -9 -9 -9 -9 -9 -9 -8 -8 -8 -8 -8 -8 -8 -8 -8 -8 -9 -8 -8 -8 -8 -8 -8 -8 -9 -9 -9 -9
-8 -8 -8 -8 -8 -9 -9 -9 -9 -10 -9 -9 -9 -9 -9 -9 -9 -9 -9 -9 -9 -8 -8 -8 -8 -9 -9 -8 -8 -8 -8 -8 -8 -9 -8 -8 -8 -9 -9 -9 -9 -8 -8
-8 -8 -8 -9 -9 -9 -9 -9 -9 -9 -9 -10 -10 -9 -9 -9 -9 -9 -9 -9 -9 -9 -9 -9 -8 -9 -9 -9 -8 -8 -8 -8 -8 -8 -8 -9 -9 -9 -8 -9 -9 -9 -9
-9 -9 -9 -10 -10 -10 -10 -10 -10 -9 -9 -9 -9 -9 -9 -9 -9 -9 -9 -9 -9 -9 -9 -9 -9 -9 -9 -9 -8 -8 -8 -8 -9 -9 -9 -10 -10 -10 -9 -9 -10 -10 -9
-11 -10 -10 -10 -10 -11 -10 -10 -10 -9 -9 -9 -9 -9 -9 -9 -9 -9 -9 -9 -9 -9 -10 -10 -10 -9 -9 -9 -9 -9 -9 -10 -10 -10 -11 -11 -11 -11 -10 -10 -10 -10 -10
-11 -11 -11 -11 -11 -10 -10 -10 -10 -10 -9 -9 -9 -9 -9 -9 -9 -9 -10 -10 -10 -10 -11 -11 -10 -10 -9 -9 -9 -10 -10 -10 -10 -11 -11 -11 -11 -12 -12 -11 -11 -11 -11
-12 -12 -12 -11 -11 -11 -11 -10 -10 -10 -9 -9 -10 -10 -10 -10 -9 -9 -10 -10 -10 -11 -12 -12 -12 -11 -11 -10 -10 -11 -11 -11 -11 -11 -11 -12 -12 -12 -12 -12 -12 -11 -11
-12 -12 -12 -12 -11 -11 -11 -10 -10 -10 -10 -10 -10 -10 -10 -9 -9 -9 -9 -9 -10 -11 -12 -12 -12 -12 -11 -11 -11 -11 -11 -11 -11 -12 -12 -12 -12 -12 -12 -12 -12 -12 -11
-13 -12 -12 -12 -11 -11 -11 -10 -11 -11 -11 -11 -11 -10 -10 -10 -10 -9 -9 -9 -9 -10 -11 -12 -12 -12 -12 -12 -12 -11 -11 -11 -12 -12 -13 -13 -13 -13 -13 -13 -12 -12 -12
-12 -12 -13 -12 -12 -11 -12 -11 -12 -11 -11 -11 -11 -10 -10 -11 -11 -10 -10 -10 -10 -10 -11 -11 -12 -12 -12 -12 -12 -11 -11 -12 -13 -13 -13 -13 -13 -13 -13 -13 -13 -13 -12
-13 -13 -13 -13 -13 -12 -12 -12 -12 -12 -11 -11 -11 -11 -11 -11 -11 -11 -11 -10 -10 -11 -11 -11 -12 -12 -12 -12 -12 -11 -12 -12 -13 -13 -14 -14 -14 -14 -14 -13 -13 -13 -12
Height
5935 5918 5911 5930 5933 5933 5932 5932 5931 5927 5921 5919 5917 5914 5913 5910 5907 5903 5897 5894 5894 5893 5892 5896 5898 5900 5902 5903 5903 5904 5904 5903 5903 5903 5902 5902 5901 5900 5899 5899 5897 5895 5894
5929 5926 5926 5931 5929 5929 5928 5927 5926 5924 5918 5916 5914 5911 5909 5907 5902 5898 5893 5890 5887 5884 5886 5890 5891 5894 5894 5896 5896 5897 5899 5899 5898 5895 5896 5897 5899 5898 5896 5894 5895 5893 5891
5926 5925 5923 5925 5924 5923 5924 5924 5921 5919 5915 5911 5911 5908 5906 5903 5899 5895 5890 5887 5883 5882 5882 5885 5887 5889 5888 5888 5889 5891 5891 5890 5890 5889 5886 5889 5891 5893 5893 5892 5892 5892 5890
5926 5924 5923 5922 5922 5923 5922 5919 5914 5912 5909 5907 5904 5903 5901 5899 5896 5892 5889 5886 5882 5880 5881 5881 5881 5882 5882 5881 5883 5883 5883 5883 5883 5884 5883 5884 5885 5887 5888 5889 5888 5890 5889
5925 5923 5921 5921 5920 5918 5915 5911 5908 5906 5904 5903 5899 5897 5895 5893 5891 5889 5887 5885 5883 5882 5879 5878 5877 5876 5876 5875 5877 5875 5876 5876 5876 5877 5877 5879 5880 5882 5883 5884 5883 5885 5887
5922 5920 5918 5916 5914 5911 5908 5904 5902 5899 5898 5896 5894 5892 5889 5887 5885 5884 5883 5882 5880 5878 5877 5876 5875 5874 5873 5872 5871 5870 5870 5869 5870 5871 5872 5873 5874 5876 5878 5879 5879 5879 5882
5915 5913 5911 5908 5906 5903 5901 5898 5895 5893 5892 5889 5888 5886 5884 5882 5878 5878 5878 5876 5875 5874 5872 5871 5869 5869 5869 5866 5865 5864 5863 5863 5862 5863 5864 5862 5866 5869 5872 5872 5873 5874 5875
5913 5911 5908 5904 5901 5898 5895 5892 5889 5887 5884 5882 5881 5880 5878 5874 5872 5871 5870 5870 5869 5867 5865 5864 5862 5861 5861 5859 5858 5858 5858 5857 5855 5856 5853 5856 5854 5858 5864 5865 5867 5867 5869
5907 5904 5900 5896 5892 5889 5887 5884 5881 5879 5878 5876 5874 5872 5871 5868 5865 5863 5862 5862 5861 5860 5858 5857 5856 5854 5853 5852 5852 5852 5852 5851 5848 5849 5848 5848 5847 5851 5856 5858 5858 5860 5861
5897 5895 5892 5889 5885 5880 5877 5874 5872 5869 5867 5866 5865 5863 5862 5860 5858 5855 5854 5853 5852 5850 5849 5849 5848 5846 5845 5846 5845 5845 5845 5844 5840 5842 5843 5842 5843 5845 5848 5850 5852 5856 5857
5888 5885 5882 5879 5876 5872 5869 5866 5863 5860 5858 5856 5854 5853 5852 5850 5848 5846 5844 5844 5844 5842 5841 5841 5839 5838 5838 5838 5839 5838 5837 5835 5834 5833 5833 5835 5837 5839 5841 5843 5846 5849 5851
5876 5873 5870 5866 5862 5859 5856 5853 5851 5849 5847 5845 5843 5842 5840 5838 5837 5836 5834 5833 5832 5832 5832 5832 5831 5828 5828 5829 5829 5829 5829 5828 5827 5827 5827 5825 5830 5832 5834 5836 5837 5839 5843
5863 5859 5855 5853 5849 5847 5844 5840 5837 5835 5834 5833 5831 5830 5829 5826 5824 5823 5821 5820 5819 5818 5820 5820 5819 5818 5817 5817 5818 5819 5820 5820 5819 5819 5819 5819 5820 5823 5825 5826 5828 5828 5829
5853 5849 5845 5841 5837 5832 5829 5826 5824 5822 5819 5817 5816 5815 5814 5814 5812 5810 5808 5806 5805 5804 5805 5806 5807 5807 5808 5808 5807 5807 5807 5809 5810 5811 5810 5811 5812 5813 5814 5816 5818 5819 5820
5840 5835 5831 5829 5825 5821 5815 5811 5809 5807 5804 5802 5800 5798 5797 5797 5796 5794 5793 5792 5791 5790 5790 5791 5793 5794 5796 5796 5796 5795 5795 5795 5797 5799 5800 5802 5802 5803 5804 5805 5807 5809 5811
5824 5820 5816 5813 5809 5806 5803 5800 5795 5792 5790 5786 5784 5782 5781 5779 5778 5778 5776 5775 5775 5775 5775 5776 5777 5778 5780 5781 5782 5783 5782 5782 5784 5784 5786 5790 5792 5792 5793 5794 5796 5797 5800
5809 5805 5800 5795 5793 5790 5787 5783 5781 5778 5773 5771 5768 5765 5763 5762 5760 5759 5758 5757 5756 5757 5759 5759 5760 5762 5762 5763 5764 5765 5767 5768 5767 5768 5770 5775 5778 5778 5780 5782 5783 5785 5786
5793 5788 5784 5780 5777 5774 5771 5768 5765 5761 5760 5759 5753 5748 5745 5740 5738 5737 5736 5737 5738 5738 5738 5739 5740 5742 5744 5745 5746 5747 5748 5748 5750 5751 5753 5756 5761 5763 5765 5769 5771 5772 5774
5774 5770 5767 5764 5761 5758 5755 5751 5748 5744 5741 5737 5734 5732 5726 5721 5717 5714 5711 5711 5713 5715 5717 5718 5720 5722 5724 5726 5728 5729 5729 5730 5731 5733 5736 5739 5742 5746 5749 5752 5756 5759 5762
5758 5753 5750 5748 5745 5742 5737 5733 5730 5725 5721 5716 5711 5707 5703 5698 5693 5690 5686 5684 5684 5687 5691 5694 5697 5700 5703 5706 5708 5710 5711 5713 5715 5716 5719 5721 5723 5726 5730 5735 5739 5743 5747
5741 5739 5735 5732 5729 5725 5721 5717 5712 5707 5701 5695 5690 5684 5678 5671 5670 5665 5660 5659 5658 5659 5663 5668 5673 5679 5683 5687 5689 5692 5695 5698 5700 5702 5703 5705 5708 5711 5713 5717 5722 5728 5732
5727 5723 5720 5717 5713 5708 5704 5699 5694 5689 5680 5675 5669 5664 5657 5648 5641 5639 5636 5634 5634 5634 5638 5645 5652 5660 5665 5670 5673 5676 5680 5683 5685 5687 5688 5691 5694 5698 5701 5703 5706 5711 5717
5712 5708 5705 5702 5698 5693 5688 5683 5677 5669 5663 5656 5650 5645 5637 5626 5618 5613 5612 5613 5613 5615 5618 5626 5634 5643 5650 5655 5659 5663 5666 5668 5668 5669 5671 5674 5678 5683 5686 5689 5691 5694 5701
5696 5693 5691 5686 5681 5677 5672 5666 5661 5654 5648 5643 5637 5629 5618 5609 5603 5598 5595 5595 5597 5600 5606 5613 5622 5630 5636 5642 5646 5650 5653 5653 5653 5653 5655 5658 5663 5666 5669 5674 5679 5680 5685
5682 5679 5673 5668 5665 5662 5658 5654 5649 5643 5638 5632 5625 5617 5605 5596 5591 5586 5584 5585 5588 5591 5598 5605 5612 5619 5625 5631 5636 5639 5641 5641 5641 5641 5641 5644 5647 5651 5655 5661 5666 5669 5673
5671 5666 5661 5658 5656 5654 5651 5647 5641 5635 5629 5623 5616 5608 5596 5589 5585 5581 5580 5582 5584 5586 5592 5599 5605 5611 5617 5622 5626 5629 5631 5630 5629 5629 5630 5632 5635 5640 5645 5649 5654 5657 5662
Wind_Speed
21 32 27 32 13 6 12 15 16 18 13 11 11 13 15 20 25 26 26 22 22 21 32 29 24 27 25 25 22 23 22 21 20 18 18 16 15 14 13 11 13 12 11
19 19 11 5 4 9 13 16 16 17 16 14 12 14 16 19 23 25 22 14 14 17 35 27 27 25 26 25 24 24 25 24 23 24 19 19 19 17 15 12 12 12 12
19 18 14 13 11 15 20 24 21 21 19 19 20 17 17 18 20 21 21 17 8 16 24 27 25 23 24 26 25 24 27 28 28 26 21 20 21 20 19 15 13 13 14
20 19 17 15 16 21 25 28 28 23 21 21 20 22 20 20 19 20 18 16 10 10 14 23 25 24 27 24 25 26 28 31 29 29 30 22 22 23 22 17 15 15 16
20 19 20 21 23 26 26 28 30 28 25 20 22 23 22 24 21 19 18 18 17 14 14 17 19 19 24 25 26 29 26 29 27 25 26 21 26 25 23 18 15 17 16
24 24 24 24 25 28 29 29 30 30 29 27 26 25 25 27 25 20 18 19 19 19 21 23 22 24 22 21 20 22 24 22 28 26 19 25 27 24 24 20 19 19 18
29 29 27 27 29 29 29 29 30 30 27 28 29 26 25 27 25 23 21 21 21 22 23 24 25 26 26 25 26 23 22 24 27 23 23 28 26 27 26 24 22 21 22
30 31 30 30 29 29 30 30 30 29 30 29 28 26 28 28 29 28 26 24 25 26 25 25 26 27 23 22 24 27 24 30 28 31 23 35 32 30 29 27 25 23 25
32 33 34 35 35 33 32 32 33 31 30 30 29 28 27 29 29 30 31 31 29 28 28 27 27 27 25 23 23 24 27 32 28 29 23 32 31 31 31 30 30 26 26
36 35 34 36 38 37 35 35 35 34 31 30 30 30 31 32 34 35 34 34 32 32 30 29 29 29 29 25 23 26 26 29 33 28 37 37 35 36 34 31 31 30 29
39 40 40 39 39 38 34 34 33 34 34 33 33 33 33 34 35 36 37 35 35 36 33 31 33 33 32 31 29 26 26 24 28 33 43 37 35 38 39 38 35 33 33
44 43 44 44 44 44 42 38 36 34 33 34 35 36 37 37 37 38 39 40 39 39 37 36 36 38 37 34 32 32 29 25 28 29 28 25 30 34 36 37 39 39 37
44 46 48 49 48 47 46 44 41 39 37 37 37 36 37 40 41 41 42 42 43 44 41 40 40 40 40 40 38 36 34 31 31 29 30 32 32 38 39 40 39 38 42
45 47 49 51 52 52 50 47 45 43 43 43 42 42 41 41 42 44 45 46 46 46 45 42 40 39 38 39 41 40 38 37 35 34 34 34 37 36 37 37 32 31 29
47 47 48 51 53 53 49 48 48 46 46 46 46 47 46 44 42 43 44 45 46 46 45 43 41 40 38 39 40 43 44 42 40 40 39 37 39 40 40 40 38 38 37
49 50 51 53 56 56 53 48 48 49 48 49 49 49 47 47 46 46 47 47 48 48 47 46 45 44 44 44 44 45 46 47 47 46 44 42 41 43 42 42 42 43 41
53 56 55 55 59 58 54 52 50 50 52 52 52 52 52 51 51 51 52 52 52 52 50 50 49 48 49 49 49 50 50 51 53 53 52 47 45 47 47 45 43 43 42
59 58 60 59 58 56 54 53 53 54 53 51 53 55 56 57 58 58 58 57 56 56 56 56 55 54 53 53 52 53 54 55 56 58 58 56 52 52 52 48 47 45 44
56 56 58 58 57 56 55 54 55 54 54 54 54 55 58 61 63 65 66 65 63 61 61 61 60 58 57 55 53 54 55 56 57 57 58 56 55 55 55 53 49 47 45
52 52 53 55 56 55 55 55 56 55 56 57 59 61 62 62 62 63 66 69 69 67 65 64 62 60 58 55 53 53 51 50 48 47 46 46 48 52 54 58 53 48 45
51 53 53 52 53 52 52 54 55 57 59 58 60 59 58 58 54 55 59 66 66 64 59 60 59 57 54 51 51 51 48 47 46 47 46 44 45 44 42 48 54 50 46
49 49 50 50 51 52 53 53 56 59 57 57 55 54 53 58 59 57 54 55 56 61 64 55 53 52 48 48 47 47 45 45 48 51 51 50 48 46 44 41 46 51 48
49 49 49 49 50 52 53 55 55 53 51 51 51 48 56 54 47 44 48 47 49 49 51 48 47 46 45 45 44 43 43 43 47 51 53 53 51 50 48 45 40 46 49
51 52 51 52 53 53 51 48 46 44 44 43 43 48 50 41 37 33 33 35 35 36 37 36 36 40 41 41 39 39 40 42 43 45 46 47 46 46 48 46 44 42 46
49 44 41 44 42 38 36 35 35 38 37 38 42 46 39 33 32 28 21 19 22 25 29 27 28 32 35 35 34 34 35 37 35 37 38 40 40 39 42 42 40 39 42
41 37 35 30 29 24 22 25 28 30 32 32 33 37 30 22 17 17 11 12 14 19 23 22 24 29 30 29 30 31 34 34 35 34 35 34 33 36 37 38 37 37 38
Wind_Direction
326 339 236 210 219 272 291 289 291 308 309 315 312 305 306 307 315 311 298 277 254 247 236 233 241 253 256 259 265 272 272 263 265 266 268 271 261 255 271 294 310 311 311
329 355 35 250 246 257 293 307 304 301 306 307 300 300 310 310 312 318 316 279 233 236 232 228 239 249 257 259 260 263 267 264 259 258 257 261 254 251 259 272 298 305 306
331 335 335 311 299 303 299 307 316 312 312 310 309 311 311 314 315 320 326 302 255 251 249 230 245 251 256 264 259 264 266 263 260 255 253 247 243 245 256 267 281 291 294
331 317 306 303 285 288 283 297 311 313 315 308 306 309 311 308 310 316 318 319 277 234 241 236 243 254 261 267 271 269 267 266 268 256 253 251 251 248 251 262 275 283 284
331 317 306 297 289 288 291 292 300 306 309 307 305 304 301 303 307 311 309 312 301 270 248 246 250 255 260 265 264 264 265 271 273 271 256 256 256 245 249 254 260 268 277
338 331 318 305 298 296 292 288 292 298 303 300 299 300 295 295 298 301 298 296 292 284 280 275 267 270 263 266 272 272 268 268 271 269 255 273 248 233 247 250 251 257 265
336 332 324 310 302 300 298 297 297 297 294 289 288 288 287 290 292 294 287 289 286 283 281 278 276 274 273 271 272 272 272 266 267 263 265 246 234 230 242 243 246 253 261
327 328 323 319 308 301 297 298 298 294 292 288 288 282 280 285 288 290 288 285 283 284 285 287 285 281 273 272 274 273 272 270 271 265 250 244 227 221 236 241 247 250 262
315 322 322 321 316 308 301 298 297 292 288 287 283 285 279 281 280 284 286 284 281 280 281 284 285 286 287 283 273 277 281 277 270 260 255 230 221 225 232 238 243 246 252
311 314 318 316 315 310 303 298 299 297 291 286 283 281 279 278 276 281 280 280 280 279 280 282 282 282 283 283 281 278 279 285 267 249 240 229 227 231 233 240 248 254 254
305 308 313 314 312 308 299 292 289 288 287 286 284 281 279 277 277 277 277 275 275 276 278 278 279 278 278 279 278 278 277 283 263 262 241 231 232 239 241 244 249 256 260
302 305 309 310 309 309 306 297 290 288 282 279 279 280 280 279 277 275 273 274 273 273 273 272 272 275 275 273 276 276 273 275 267 265 261 242 241 246 249 253 257 259 262
298 301 305 306 305 305 304 300 295 293 290 284 280 278 276 276 276 274 273 271 271 271 270 269 269 268 270 275 274 271 271 269 268 266 266 264 264 252 258 259 261 265 262
295 297 299 299 300 301 301 298 294 291 290 288 284 282 279 275 271 268 266 267 268 268 269 267 266 266 268 269 271 273 272 268 265 264 265 261 259 266 270 264 261 258 261
290 292 294 295 296 297 294 292 290 289 288 287 287 286 283 280 274 270 268 266 266 266 265 266 265 264 264 265 266 268 270 269 267 263 260 259 260 259 257 260 260 261 258
293 293 293 295 295 295 294 289 289 289 288 288 288 285 282 280 277 274 272 270 268 267 265 264 265 266 267 266 264 264 265 267 267 264 262 258 258 260 259 257 257 257 258
296 294 293 294 296 296 293 290 289 289 289 288 286 284 283 281 277 274 272 270 269 267 265 264 264 265 267 266 266 265 264 263 263 263 262 260 258 257 258 259 260 262 261
290 291 291 292 291 289 288 288 287 287 286 283 283 283 283 281 279 276 273 269 268 266 264 263 263 263 265 265 266 266 265 263 260 260 260 261 257 256 257 256 256 258 258
283 284 287 287 286 286 287 286 285 286 286 285 284 283 282 280 279 278 276 273 268 265 263 262 262 262 264 264 266 265 263 262 261 260 260 261 261 256 253 254 254 255 255
282 283 284 286 287 288 287 287 287 287 287 289 289 288 287 285 281 277 274 271 268 264 261 260 260 260 262 264 264 261 258 257 257 258 258 258 260 260 255 250 250 251 250
287 287 288 288 288 287 287 288 290 291 293 293 294 294 292 287 283 280 276 270 267 265 263 257 254 256 259 258 259 257 252 252 254 255 255 255 257 260 260 253 251 250 250
287 288 287 287 288 290 291 292 293 294 295 297 295 295 294 293 289 282 273 267 264 262 260 258 248 247 249 253 256 255 253 255 256 255 255 256 255 256 258 259 251 249 249
289 289 289 291 292 291 292 294 296 297 298 295 297 297 304 300 293 283 273 269 263 263 255 256 243 245 247 251 253 252 254 261 261 257 255 254 253 252 254 254 255 248 247
289 290 292 292 290 291 294 295 298 300 297 299 301 308 309 301 296 294 282 269 258 260 250 247 239 239 243 246 247 250 259 266 264 261 257 254 253 251 249 251 252 249 243
297 301 296 291 292 295 298 303 302 301 303 304 309 315 313 305 301 293 283 256 257 250 241 242 236 232 235 239 245 254 260 263 265 260 256 255 249 245 245 247 252 250 241
303 305 299 298 299 302 309 312 318 318 317 319 317 324 328 316 320 318 292 265 262 242 231 230 225 228 232 239 247 254 263 265 261 257 254 254 244 238 242 246 249 243 240